QPF
0.00 0.00 0.00 0.00 0.01 0.02 0.01 0.01 0.01 0.01 0.01 0.01 0.02 0.02 0.02 0.03 0.04 0.05 0.04 0.06 0.07 0.10 0.13 0.12 0.13 0.17 0.17 0.16 0.21 0.24 0.24 0.24 0.27 0.26 0.17 0.11 0.08 0.06 0.07 0.05 0.04 0.02 0.02
0.00 0.00 0.00 0.00 0.01 0.02 0.01 0.01 0.01 0.01 0.00 0.00 0.00 0.01 0.01 0.01 0.02 0.02 0.03 0.04 0.05 0.06 0.07 0.08 0.11 0.15 0.16 0.15 0.17 0.22 0.22 0.23 0.25 0.24 0.24 0.17 0.12 0.09 0.07 0.06 0.05 0.04 0.04
0.01 0.00 0.00 0.00 0.00 0.00 0.00 0.00 0.00 0.00 0.00 0.00 0.00 0.00 0.00 0.00 0.00 0.00 0.00 0.01 0.02 0.03 0.04 0.06 0.08 0.09 0.11 0.10 0.14 0.18 0.20 0.20 0.18 0.19 0.26 0.25 0.21 0.18 0.12 0.08 0.06 0.06 0.06
0.01 0.01 0.01 0.01 0.01 0.00 0.00 0.00 0.00 0.00 0.00 0.00 0.00 0.00 0.00 0.00 0.00 0.00 0.00 0.00 0.01 0.01 0.01 0.02 0.03 0.03 0.04 0.05 0.06 0.08 0.11 0.14 0.14 0.15 0.17 0.21 0.23 0.22 0.15 0.09 0.06 0.05 0.05
0.03 0.02 0.02 0.01 0.00 0.00 0.00 0.00 0.00 0.00 0.00 0.00 0.00 0.00 0.00 0.00 0.00 0.00 0.00 0.00 0.00 0.00 0.00 0.00 0.01 0.01 0.02 0.02 0.03 0.05 0.08 0.09 0.11 0.12 0.12 0.13 0.13 0.13 0.12 0.10 0.08 0.07 0.06
0.04 0.03 0.02 0.01 0.00 0.00 0.00 0.00 0.00 0.00 0.00 0.00 0.01 0.01 0.01 0.01 0.00 0.00 0.00 0.00 0.00 0.00 0.00 0.00 0.00 0.01 0.01 0.01 0.02 0.04 0.06 0.07 0.08 0.09 0.10 0.10 0.09 0.08 0.08 0.10 0.11 0.12 0.12
0.03 0.03 0.02 0.01 0.00 0.00 0.00 0.00 0.00 0.01 0.01 0.01 0.01 0.01 0.01 0.01 0.01 0.00 0.00 0.00 0.00 0.00 0.00 0.00 0.01 0.01 0.02 0.02 0.03 0.04 0.05 0.05 0.06 0.06 0.07 0.08 0.09 0.10 0.12 0.14 0.15 0.16 0.16
0.03 0.03 0.03 0.02 0.02 0.01 0.01 0.00 0.00 0.01 0.01 0.01 0.01 0.01 0.01 0.01 0.00 0.00 0.00 0.00 0.00 0.00 0.00 0.00 0.01 0.01 0.02 0.02 0.03 0.04 0.03 0.04 0.05 0.05 0.07 0.08 0.08 0.11 0.14 0.15 0.18 0.16 0.14
0.03 0.03 0.03 0.03 0.02 0.01 0.01 0.01 0.00 0.00 0.00 0.00 0.01 0.00 0.01 0.01 0.01 0.01 0.01 0.00 0.00 0.00 0.00 0.00 0.01 0.01 0.01 0.02 0.02 0.03 0.03 0.04 0.04 0.05 0.07 0.08 0.09 0.11 0.15 0.18 0.19 0.18 0.15
0.02 0.02 0.02 0.02 0.02 0.01 0.01 0.00 0.00 0.00 0.00 0.00 0.00 0.00 0.00 0.00 0.00 0.01 0.01 0.01 0.01 0.00 0.00 0.00 0.01 0.01 0.02 0.03 0.03 0.03 0.04 0.06 0.07 0.07 0.09 0.09 0.10 0.11 0.14 0.16 0.17 0.17 0.17
0.01 0.01 0.02 0.01 0.01 0.01 0.01 0.00 0.00 0.00 0.00 0.00 0.00 0.00 0.00 0.00 0.00 0.01 0.01 0.01 0.01 0.01 0.01 0.01 0.01 0.02 0.02 0.02 0.03 0.03 0.04 0.05 0.07 0.08 0.10 0.11 0.13 0.14 0.14 0.14 0.15 0.16 0.16
0.00 0.01 0.01 0.01 0.01 0.01 0.01 0.01 0.00 0.00 0.00 0.00 0.00 0.00 0.00 0.00 0.00 0.01 0.01 0.01 0.01 0.01 0.01 0.01 0.01 0.01 0.01 0.01 0.02 0.03 0.03 0.05 0.08 0.11 0.12 0.12 0.11 0.12 0.13 0.14 0.15 0.15 0.14
0.00 0.00 0.00 0.00 0.01 0.01 0.01 0.01 0.00 0.00 0.00 0.00 0.00 0.00 0.00 0.00 0.00 0.00 0.01 0.01 0.01 0.01 0.01 0.01 0.01 0.01 0.01 0.01 0.01 0.02 0.03 0.05 0.07 0.10 0.11 0.11 0.11 0.11 0.11 0.12 0.13 0.14 0.12
0.00 0.00 0.00 0.00 0.00 0.00 0.00 0.00 0.00 0.00 0.00 0.00 0.00 0.00 0.01 0.01 0.01 0.01 0.01 0.01 0.01 0.01 0.01 0.01 0.02 0.01 0.01 0.02 0.03 0.03 0.05 0.06 0.07 0.09 0.10 0.11 0.13 0.13 0.14 0.13 0.11 0.10 0.10
0.00 0.00 0.00 0.00 0.00 0.00 0.00 0.00 0.00 0.00 0.00 0.00 0.00 0.00 0.00 0.00 0.01 0.01 0.01 0.02 0.02 0.02 0.01 0.02 0.02 0.02 0.02 0.02 0.02 0.03 0.04 0.06 0.09 0.11 0.12 0.13 0.15 0.16 0.15 0.14 0.11 0.09 0.08
0.00 0.00 0.00 0.00 0.00 0.00 0.00 0.00 0.00 0.00 0.00 0.00 0.00 0.00 0.00 0.00 0.00 0.01 0.01 0.02 0.02 0.02 0.02 0.01 0.02 0.02 0.01 0.01 0.01 0.03 0.04 0.05 0.07 0.10 0.10 0.10 0.11 0.12 0.13 0.14 0.12 0.10 0.08
0.00 0.00 0.01 0.01 0.01 0.01 0.01 0.01 0.01 0.01 0.01 0.00 0.00 0.00 0.00 0.00 0.00 0.01 0.02 0.02 0.03 0.03 0.03 0.03 0.03 0.02 0.02 0.01 0.01 0.01 0.03 0.04 0.04 0.05 0.08 0.09 0.11 0.11 0.11 0.11 0.10 0.10 0.09
0.00 0.01 0.01 0.00 0.00 0.00 0.00 0.00 0.00 0.00 0.00 0.00 0.00 0.00 0.00 0.00 0.01 0.01 0.02 0.04 0.05 0.06 0.06 0.06 0.05 0.05 0.03 0.01 0.01 0.02 0.02 0.03 0.05 0.04 0.05 0.07 0.10 0.11 0.08 0.07 0.07 0.07 0.05
0.00 0.00 0.00 0.00 0.00 0.00 0.00 0.00 0.00 0.00 0.00 0.00 0.00 0.00 0.00 0.00 0.01 0.02 0.03 0.05 0.07 0.08 0.10 0.10 0.10 0.08 0.05 0.02 0.02 0.02 0.02 0.03 0.05 0.05 0.04 0.03 0.05 0.07 0.05 0.03 0.03 0.02 0.01
0.00 0.00 0.00 0.00 0.00 0.00 0.00 0.00 0.00 0.00 0.00 0.00 0.00 0.00 0.00 0.01 0.01 0.02 0.04 0.07 0.09 0.11 0.12 0.13 0.13 0.11 0.09 0.05 0.03 0.02 0.02 0.02 0.03 0.04 0.04 0.03 0.02 0.02 0.02 0.02 0.01 0.01 0.00
0.00 0.00 0.00 0.00 0.00 0.00 0.00 0.00 0.01 0.01 0.00 0.00 0.01 0.01 0.01 0.01 0.01 0.02 0.04 0.07 0.11 0.14 0.15 0.15 0.15 0.14 0.12 0.07 0.05 0.03 0.03 0.02 0.02 0.03 0.02 0.02 0.01 0.00 0.00 0.00 0.00 0.00 0.00
0.00 0.00 0.00 0.00 0.00 0.00 0.01 0.01 0.01 0.01 0.01 0.01 0.01 0.01 0.01 0.01 0.01 0.03 0.04 0.08 0.14 0.20 0.22 0.22 0.21 0.20 0.15 0.09 0.05 0.04 0.03 0.03 0.02 0.02 0.01 0.01 0.01 0.00 0.00 0.00 0.00 0.00 0.00
0.00 0.00 0.00 0.00 0.00 0.00 0.01 0.01 0.01 0.01 0.02 0.02 0.02 0.01 0.02 0.02 0.02 0.03 0.05 0.08 0.14 0.23 0.28 0.29 0.26 0.24 0.20 0.11 0.06 0.04 0.03 0.02 0.02 0.01 0.00 0.00 0.00 0.00 0.00 0.00 0.00 0.00 0.00
0.00 0.00 0.00 0.00 0.00 0.00 0.01 0.01 0.01 0.01 0.02 0.03 0.02 0.02 0.02 0.02 0.03 0.05 0.06 0.10 0.15 0.23 0.27 0.31 0.29 0.27 0.24 0.15 0.07 0.05 0.03 0.02 0.01 0.01 0.00 0.00 0.00 0.00 0.00 0.00 0.00 0.00 0.00
0.00 0.00 0.00 0.01 0.00 0.00 0.00 0.00 0.01 0.02 0.03 0.03 0.03 0.03 0.03 0.03 0.04 0.05 0.06 0.09 0.15 0.21 0.25 0.27 0.29 0.28 0.23 0.15 0.08 0.04 0.02 0.01 0.01 0.00 0.00 0.00 0.00 0.00 0.00 0.00 0.00 0.00 0.00
0.00 0.00 0.00 0.00 0.00 0.00 0.00 0.00 0.01 0.02 0.03 0.04 0.03 0.04 0.04 0.06 0.07 0.07 0.07 0.08 0.12 0.16 0.20 0.25 0.27 0.28 0.24 0.17 0.10 0.05 0.03 0.01 0.00 0.00 0.00 0.00 0.00 0.00 0.00 0.00 0.00 0.00 0.00
MSLP
1008.32 1008.45 1008.59 1008.75 1008.95 1009.18 1009.47 1009.80 1010.16 1010.52 1010.85 1011.11 1011.28 1011.36 1011.35 1011.28 1011.18 1011.09 1011.02 1010.99 1010.99 1010.99 1010.97 1010.91 1010.79 1010.63 1010.44 1010.25 1010.10 1010.03 1010.06 1010.18 1010.38 1010.62 1010.86 1011.07 1011.19 1011.22 1011.13 1010.96 1010.72 1010.43 1010.14
1008.64 1008.71 1008.79 1008.90 1009.04 1009.22 1009.45 1009.74 1010.06 1010.40 1010.72 1010.98 1011.16 1011.26 1011.27 1011.21 1011.12 1011.02 1010.93 1010.85 1010.80 1010.74 1010.66 1010.53 1010.35 1010.13 1009.88 1009.64 1009.45 1009.35 1009.34 1009.45 1009.64 1009.90 1010.16 1010.40 1010.56 1010.63 1010.58 1010.45 1010.24 1009.98 1009.71
1009.13 1009.15 1009.18 1009.22 1009.29 1009.39 1009.56 1009.77 1010.04 1010.34 1010.63 1010.89 1011.09 1011.20 1011.24 1011.21 1011.12 1011.02 1010.91 1010.80 1010.70 1010.58 1010.43 1010.24 1010.00 1009.72 1009.41 1009.12 1008.87 1008.71 1008.66 1008.72 1008.89 1009.12 1009.38 1009.63 1009.82 1009.93 1009.95 1009.87 1009.72 1009.53 1009.32
1009.78 1009.75 1009.72 1009.70 1009.68 1009.71 1009.78 1009.91 1010.11 1010.35 1010.61 1010.86 1011.06 1011.19 1011.25 1011.24 1011.17 1011.07 1010.94 1010.81 1010.67 1010.50 1010.31 1010.06 1009.77 1009.43 1009.08 1008.73 1008.42 1008.20 1008.08 1008.08 1008.18 1008.36 1008.60 1008.83 1009.04 1009.19 1009.27 1009.26 1009.20 1009.10 1008.97
1010.55 1010.48 1010.40 1010.30 1010.21 1010.14 1010.12 1010.16 1010.27 1010.45 1010.66 1010.88 1011.07 1011.21 1011.28 1011.29 1011.23 1011.13 1010.99 1010.84 1010.67 1010.47 1010.24 1009.96 1009.64 1009.27 1008.87 1008.48 1008.12 1007.83 1007.63 1007.55 1007.57 1007.68 1007.86 1008.07 1008.28 1008.46 1008.59 1008.67 1008.70 1008.69 1008.67
1011.38 1011.29 1011.17 1011.01 1010.84 1010.68 1010.57 1010.52 1010.54 1010.64 1010.80 1010.97 1011.13 1011.26 1011.32 1011.32 1011.26 1011.14 1010.99 1010.82 1010.62 1010.40 1010.15 1009.87 1009.53 1009.15 1008.74 1008.31 1007.91 1007.56 1007.29 1007.11 1007.05 1007.08 1007.19 1007.37 1007.57 1007.77 1007.95 1008.10 1008.22 1008.32 1008.40
1012.24 1012.14 1011.99 1011.78 1011.55 1011.32 1011.12 1010.98 1010.92 1010.94 1011.03 1011.14 1011.25 1011.33 1011.36 1011.33 1011.23 1011.08 1010.89 1010.69 1010.47 1010.23 1009.97 1009.69 1009.36 1008.99 1008.58 1008.15 1007.72 1007.32 1006.99 1006.74 1006.59 1006.54 1006.59 1006.72 1006.91 1007.12 1007.35 1007.58 1007.79 1007.98 1008.15
1013.09 1012.99 1012.82 1012.58 1012.30 1012.01 1011.75 1011.54 1011.41 1011.35 1011.35 1011.39 1011.42 1011.43 1011.39 1011.28 1011.11 1010.90 1010.66 1010.40 1010.15 1009.89 1009.63 1009.36 1009.05 1008.70 1008.32 1007.90 1007.46 1007.04 1006.66 1006.35 1006.14 1006.02 1006.02 1006.12 1006.30 1006.53 1006.81 1007.10 1007.38 1007.66 1007.91
1013.89 1013.80 1013.62 1013.37 1013.07 1012.75 1012.44 1012.17 1011.97 1011.84 1011.76 1011.70 1011.64 1011.55 1011.40 1011.19 1010.93 1010.62 1010.30 1009.97 1009.67 1009.38 1009.12 1008.85 1008.57 1008.26 1007.90 1007.51 1007.09 1006.66 1006.26 1005.92 1005.66 1005.51 1005.47 1005.55 1005.73 1006.00 1006.32 1006.67 1007.02 1007.37 1007.69
1014.62 1014.54 1014.37 1014.11 1013.80 1013.46 1013.13 1012.83 1012.58 1012.38 1012.21 1012.06 1011.89 1011.68 1011.40 1011.07 1010.68 1010.27 1009.84 1009.44 1009.08 1008.75 1008.47 1008.21 1007.95 1007.67 1007.35 1006.99 1006.60 1006.19 1005.79 1005.43 1005.16 1004.99 1004.95 1005.03 1005.23 1005.53 1005.89 1006.30 1006.72 1007.13 1007.51
1015.24 1015.16 1015.00 1014.75 1014.44 1014.10 1013.76 1013.44 1013.15 1012.89 1012.65 1012.40 1012.12 1011.78 1011.39 1010.93 1010.42 1009.89 1009.37 1008.88 1008.46 1008.09 1007.79 1007.53 1007.29 1007.03 1006.75 1006.42 1006.06 1005.67 1005.29 1004.95 1004.69 1004.53 1004.49 1004.59 1004.82 1005.16 1005.58 1006.04 1006.52 1006.98 1007.41
1015.72 1015.64 1015.47 1015.22 1014.92 1014.59 1014.24 1013.91 1013.59 1013.29 1012.98 1012.65 1012.28 1011.84 1011.33 1010.76 1010.15 1009.53 1008.93 1008.38 1007.90 1007.51 1007.19 1006.92 1006.69 1006.45 1006.20 1005.90 1005.57 1005.21 1004.86 1004.55 1004.31 1004.18 1004.17 1004.30 1004.56 1004.94 1005.40 1005.91 1006.43 1006.94 1007.40
1016.03 1015.92 1015.73 1015.48 1015.18 1014.85 1014.51 1014.17 1013.84 1013.50 1013.14 1012.75 1012.31 1011.79 1011.21 1010.57 1009.90 1009.22 1008.58 1007.99 1007.49 1007.07 1006.74 1006.48 1006.25 1006.03 1005.79 1005.52 1005.22 1004.90 1004.59 1004.31 1004.11 1004.01 1004.04 1004.20 1004.49 1004.90 1005.40 1005.94 1006.50 1007.04 1007.53
1016.12 1015.97 1015.76 1015.49 1015.18 1014.85 1014.50 1014.16 1013.81 1013.45 1013.06 1012.64 1012.15 1011.60 1010.99 1010.33 1009.64 1008.96 1008.31 1007.73 1007.23 1006.82 1006.49 1006.23 1006.00 1005.79 1005.57 1005.32 1005.06 1004.78 1004.51 1004.28 1004.12 1004.07 1004.13 1004.33 1004.65 1005.08 1005.59 1006.15 1006.72 1007.27 1007.78
1015.99 1015.78 1015.52 1015.23 1014.90 1014.55 1014.20 1013.85 1013.48 1013.11 1012.71 1012.27 1011.78 1011.23 1010.64 1010.00 1009.35 1008.71 1008.10 1007.56 1007.09 1006.70 1006.39 1006.13 1005.92 1005.72 1005.51 1005.30 1005.07 1004.83 1004.62 1004.45 1004.35 1004.34 1004.45 1004.67 1005.01 1005.45 1005.96 1006.51 1007.08 1007.63 1008.13
1015.64 1015.36 1015.06 1014.72 1014.36 1014.00 1013.62 1013.25 1012.88 1012.49 1012.09 1011.65 1011.18 1010.68 1010.13 1009.56 1008.98 1008.42 1007.88 1007.40 1006.99 1006.64 1006.34 1006.11 1005.90 1005.72 1005.54 1005.35 1005.17 1005.00 1004.86 1004.76 1004.74 1004.79 1004.95 1005.20 1005.55 1005.97 1006.47 1006.99 1007.53 1008.05 1008.54
1015.08 1014.75 1014.38 1014.01 1013.62 1013.22 1012.82 1012.43 1012.04 1011.64 1011.25 1010.83 1010.40 1009.95 1009.48 1008.99 1008.51 1008.04 1007.59 1007.18 1006.82 1006.51 1006.25 1006.03 1005.84 1005.67 1005.52 1005.38 1005.27 1005.18 1005.12 1005.12 1005.19 1005.32 1005.53 1005.82 1006.17 1006.59 1007.05 1007.53 1008.02 1008.50 1008.95
1014.37 1013.98 1013.57 1013.15 1012.72 1012.30 1011.87 1011.45 1011.04 1010.65 1010.26 1009.87 1009.49 1009.10 1008.70 1008.31 1007.92 1007.54 1007.17 1006.83 1006.52 1006.24 1006.00 1005.79 1005.61 1005.46 1005.35 1005.28 1005.24 1005.25 1005.31 1005.43 1005.60 1005.83 1006.11 1006.44 1006.81 1007.21 1007.63 1008.06 1008.49 1008.91 1009.32
1013.56 1013.12 1012.68 1012.22 1011.76 1011.30 1010.85 1010.41 1009.99 1009.59 1009.21 1008.85 1008.51 1008.19 1007.86 1007.55 1007.24 1006.93 1006.62 1006.32 1006.04 1005.78 1005.54 1005.33 1005.17 1005.05 1004.98 1004.98 1005.03 1005.16 1005.34 1005.59 1005.89 1006.22 1006.59 1006.97 1007.36 1007.76 1008.14 1008.52 1008.89 1009.25 1009.60
1012.69 1012.22 1011.75 1011.27 1010.78 1010.30 1009.83 1009.37 1008.94 1008.54 1008.18 1007.85 1007.55 1007.28 1007.02 1006.76 1006.50 1006.24 1005.96 1005.69 1005.41 1005.14 1004.90 1004.69 1004.53 1004.44 1004.42 1004.49 1004.65 1004.89 1005.21 1005.59 1006.01 1006.46 1006.92 1007.36 1007.78 1008.18 1008.54 1008.87 1009.19 1009.50 1009.79
1011.80 1011.31 1010.82 1010.32 1009.82 1009.32 1008.84 1008.37 1007.95 1007.56 1007.22 1006.92 1006.66 1006.43 1006.20 1005.98 1005.76 1005.51 1005.25 1004.97 1004.69 1004.41 1004.15 1003.94 1003.79 1003.72 1003.76 1003.90 1004.15 1004.50 1004.94 1005.44 1005.99 1006.54 1007.08 1007.58 1008.04 1008.44 1008.79 1009.10 1009.37 1009.63 1009.89
1010.91 1010.41 1009.90 1009.39 1008.88 1008.37 1007.89 1007.43 1007.02 1006.66 1006.34 1006.08 1005.85 1005.64 1005.45 1005.26 1005.04 1004.80 1004.54 1004.25 1003.95 1003.65 1003.39 1003.18 1003.05 1003.02 1003.10 1003.31 1003.64 1004.08 1004.62 1005.21 1005.84 1006.47 1007.07 1007.63 1008.11 1008.53 1008.88 1009.18 1009.44 1009.68 1009.91
1010.02 1009.51 1008.99 1008.46 1007.94 1007.44 1006.96 1006.53 1006.14 1005.81 1005.53 1005.30 1005.10 1004.92 1004.75 1004.57 1004.36 1004.12 1003.85 1003.55 1003.25 1002.95 1002.70 1002.51 1002.41 1002.42 1002.55 1002.82 1003.21 1003.71 1004.31 1004.96 1005.63 1006.30 1006.94 1007.52 1008.02 1008.46 1008.82 1009.12 1009.39 1009.63 1009.87
1009.15 1008.61 1008.07 1007.54 1007.01 1006.51 1006.05 1005.64 1005.29 1004.99 1004.75 1004.55 1004.38 1004.23 1004.07 1003.89 1003.68 1003.44 1003.17 1002.89 1002.60 1002.34 1002.12 1001.97 1001.92 1001.99 1002.17 1002.49 1002.92 1003.45 1004.06 1004.72 1005.40 1006.06 1006.70 1007.27 1007.78 1008.23 1008.61 1008.94 1009.23 1009.50 1009.76
1008.28 1007.72 1007.15 1006.60 1006.07 1005.58 1005.14 1004.75 1004.43 1004.17 1003.96 1003.79 1003.64 1003.50 1003.35 1003.17 1002.97 1002.73 1002.48 1002.22 1001.98 1001.77 1001.62 1001.55 1001.57 1001.71 1001.95 1002.30 1002.75 1003.29 1003.88 1004.50 1005.14 1005.77 1006.36 1006.91 1007.41 1007.86 1008.26 1008.63 1008.97 1009.29 1009.61
1007.43 1006.83 1006.24 1005.67 1005.13 1004.64 1004.21 1003.85 1003.56 1003.32 1003.13 1002.98 1002.83 1002.69 1002.53 1002.34 1002.14 1001.92 1001.70 1001.48 1001.31 1001.18 1001.13 1001.16 1001.28 1001.50 1001.81 1002.20 1002.66 1003.18 1003.72 1004.29 1004.85 1005.41 1005.94 1006.44 1006.92 1007.37 1007.80 1008.22 1008.62 1009.01 1009.40
Thickness
5805 5806 5805 5803 5798 5793 5787 5782 5777 5772 5768 5764 5760 5757 5756 5755 5754 5752 5748 5745 5743 5741 5739 5738 5737 5736 5734 5733 5732 5729 5727 5726 5726 5721 5721 5725 5728 5729 5729 5730 5732 5735 5737
5794 5793 5793 5792 5788 5783 5778 5774 5769 5766 5762 5758 5755 5752 5749 5749 5748 5746 5742 5740 5738 5736 5737 5734 5732 5732 5729 5728 5727 5725 5722 5722 5722 5717 5712 5713 5718 5723 5729 5729 5728 5731 5732
5785 5783 5782 5780 5778 5773 5770 5768 5763 5759 5756 5753 5750 5747 5743 5742 5742 5740 5738 5736 5733 5731 5729 5728 5727 5726 5725 5725 5723 5720 5717 5716 5718 5716 5710 5708 5711 5717 5722 5725 5727 5727 5727
5776 5773 5770 5767 5765 5763 5762 5758 5754 5751 5748 5745 5743 5739 5735 5734 5733 5732 5732 5730 5728 5726 5724 5723 5721 5720 5720 5720 5719 5719 5715 5712 5712 5713 5713 5712 5713 5707 5710 5716 5721 5722 5722
5763 5759 5758 5755 5754 5753 5751 5749 5745 5742 5740 5737 5735 5732 5731 5731 5731 5728 5726 5723 5724 5721 5720 5718 5716 5714 5714 5714 5712 5711 5710 5709 5708 5709 5709 5708 5707 5706 5703 5705 5711 5714 5718
5748 5745 5745 5744 5742 5742 5741 5740 5736 5733 5731 5729 5728 5725 5724 5722 5721 5720 5719 5719 5720 5718 5716 5713 5711 5709 5709 5708 5706 5706 5705 5704 5704 5704 5705 5704 5703 5703 5702 5701 5703 5704 5707
5735 5733 5731 5731 5730 5730 5730 5729 5726 5724 5723 5722 5721 5719 5717 5716 5715 5714 5715 5713 5714 5713 5710 5708 5705 5704 5703 5701 5701 5701 5700 5700 5699 5698 5700 5702 5703 5703 5701 5698 5698 5697 5698
5721 5720 5719 5718 5717 5716 5716 5716 5715 5713 5713 5713 5712 5711 5711 5712 5713 5711 5709 5708 5708 5708 5704 5701 5700 5699 5698 5697 5696 5696 5696 5696 5695 5695 5695 5696 5698 5698 5697 5695 5692 5688 5689
5707 5706 5705 5704 5703 5703 5702 5701 5701 5700 5700 5700 5701 5701 5702 5702 5703 5702 5702 5704 5702 5701 5699 5697 5696 5695 5694 5692 5691 5691 5690 5691 5691 5691 5691 5691 5694 5693 5693 5692 5690 5685 5682
5695 5693 5692 5690 5689 5689 5688 5687 5686 5685 5686 5687 5688 5691 5692 5693 5693 5694 5695 5695 5695 5694 5692 5691 5690 5689 5689 5688 5686 5686 5687 5686 5686 5685 5685 5686 5688 5688 5688 5687 5687 5684 5681
5683 5681 5679 5677 5676 5675 5674 5673 5672 5672 5672 5672 5674 5676 5678 5681 5683 5685 5686 5687 5687 5686 5686 5685 5684 5683 5683 5682 5681 5681 5681 5681 5681 5681 5681 5681 5682 5681 5682 5681 5680 5679 5676
5673 5671 5668 5665 5662 5660 5659 5658 5657 5657 5657 5658 5660 5662 5664 5667 5669 5673 5675 5677 5678 5679 5679 5679 5678 5678 5678 5676 5675 5674 5675 5675 5676 5676 5676 5676 5676 5675 5675 5674 5673 5671 5669
5661 5658 5654 5651 5648 5646 5644 5644 5643 5643 5643 5643 5644 5645 5648 5650 5653 5658 5662 5665 5667 5669 5670 5671 5671 5671 5671 5670 5669 5668 5669 5669 5669 5670 5670 5670 5669 5667 5666 5666 5664 5663 5662
5646 5642 5638 5635 5633 5631 5630 5629 5628 5628 5628 5627 5628 5629 5630 5634 5638 5643 5647 5651 5655 5658 5660 5662 5663 5664 5664 5664 5663 5662 5661 5661 5661 5661 5662 5662 5661 5659 5658 5657 5655 5654 5651
5629 5625 5622 5621 5619 5618 5616 5614 5613 5613 5612 5612 5612 5613 5616 5618 5622 5626 5631 5636 5640 5645 5649 5651 5654 5655 5656 5657 5656 5654 5653 5653 5652 5651 5651 5651 5650 5649 5649 5649 5646 5645 5643
5616 5613 5611 5608 5606 5603 5601 5599 5597 5595 5594 5594 5595 5597 5598 5601 5605 5609 5614 5619 5624 5629 5634 5638 5642 5645 5648 5645 5642 5642 5644 5643 5642 5640 5639 5638 5638 5637 5636 5635 5635 5636 5635
5604 5600 5597 5593 5590 5587 5584 5581 5579 5577 5576 5575 5576 5577 5579 5581 5585 5590 5594 5599 5605 5612 5618 5624 5629 5633 5635 5632 5631 5630 5633 5634 5632 5631 5629 5629 5626 5626 5624 5622 5622 5621 5622
5590 5585 5580 5576 5572 5569 5565 5561 5559 5556 5555 5554 5555 5556 5558 5560 5564 5568 5573 5579 5587 5593 5601 5609 5615 5620 5623 5621 5620 5620 5623 5624 5623 5622 5620 5618 5616 5616 5615 5614 5612 5611 5610
5572 5566 5561 5556 5551 5547 5543 5540 5537 5536 5535 5534 5535 5536 5537 5539 5542 5547 5553 5560 5567 5575 5584 5593 5601 5607 5611 5609 5609 5610 5614 5614 5614 5612 5611 5610 5609 5605 5605 5606 5604 5601 5598
5554 5548 5542 5538 5533 5529 5525 5522 5521 5520 5519 5520 5520 5520 5521 5522 5526 5530 5536 5542 5549 5558 5568 5578 5587 5594 5601 5599 5600 5601 5607 5606 5605 5603 5602 5601 5600 5597 5598 5599 5598 5595 5594
5538 5533 5529 5525 5521 5517 5514 5512 5511 5510 5510 5511 5511 5511 5512 5513 5517 5521 5525 5530 5536 5544 5553 5564 5574 5583 5590 5590 5591 5594 5600 5601 5600 5598 5596 5593 5588 5588 5590 5592 5592 5590 5590
5528 5524 5520 5518 5515 5512 5509 5507 5506 5506 5506 5507 5507 5507 5508 5509 5513 5516 5519 5523 5527 5534 5543 5553 5564 5573 5579 5583 5584 5586 5590 5594 5596 5595 5593 5587 5580 5580 5582 5584 5581 5582 5585
5522 5519 5517 5516 5514 5511 5508 5506 5506 5505 5504 5504 5504 5505 5506 5507 5508 5511 5515 5519 5523 5529 5538 5545 5553 5563 5570 5575 5576 5577 5580 5584 5589 5590 5585 5578 5573 5573 5575 5573 5575 5578 5584
5518 5517 5515 5514 5513 5511 5509 5507 5506 5504 5503 5502 5502 5502 5504 5505 5507 5509 5513 5517 5522 5526 5533 5539 5546 5554 5562 5568 5570 5572 5574 5575 5579 5580 5573 5569 5568 5572 5570 5568 5573 5580 5583
5517 5514 5512 5512 5511 5510 5509 5507 5505 5503 5502 5501 5500 5500 5501 5502 5504 5507 5510 5514 5518 5522 5526 5534 5542 5547 5556 5565 5568 5573 5574 5576 5578 5574 5572 5571 5571 5573 5572 5574 5577 5579 5578
5515 5513 5511 5510 5510 5509 5507 5505 5503 5501 5499 5497 5497 5497 5497 5498 5500 5503 5507 5510 5512 5516 5518 5524 5532 5543 5550 5556 5560 5566 5568 5568 5568 5572 5574 5574 5576 5576 5576 5577 5576 5577 5578